User: anonymous   Login
Location: Grasslands National Park East Block
(49.0708°N, 106.5295°W)
Time: 00:44:32
(UTC-06:00)
Language:

N. Korean satellite - Orbit

View from above orbital plane
View from above orbital plane
View from above satellite
View from above satellite

Ground track
Ground track

The orbit data is extracted from the following two-line orbital elements,

1 39026U 12072A   19235.22206825  .00000629  00000-0  25348-4 0  9992
2 39026  97.2127 236.2556 0036583 226.5082 133.3115 15.27931011371603
Epoch (UTC): 23 August 2019 05:19:46
Eccentricity: 0.0036583
inclination: 97.2127°
perigee height: 457 km
apogee height: 507 km
right ascension of ascending node: 236.2556°
argument of perigee: 226.5082°
revolutions per day: 15.27931011
mean anomaly at epoch: 133.3115°
orbit number at epoch: 37160

The dashed part of the orbit path shows where the satellite is in the earth's shadow,  

DLR